Regional Weather Roundup
Issued by NWS

Home | Current Version | Previous Version | Text Only | Print | Product List | Glossary On
Versions: 1 2 3 4 5 6 7 8 9 10 11 12 13 14 15 16 17 18 19 20 21 22 23 24 25 26 27 28 29 30 31 32 33 34 35 36 37 38 39 40 41 42 43 44 45 46 47 48 49 50
000
ASUS44 KFWD 280115
RWRTX
NORTH TEXAS HOURLY WEATHER ROUNDUP
NATIONAL WEATHER SERVICE FORT WORTH TX
700 PM CST SAT DEC 27 2014

NOTE: "FAIR" INDICATES FEW OR NO CLOUDS BELOW 12,000 FEET WITH NO
SIGNIFICANT WEATHER AND/OR OBSTRUCTIONS TO VISIBILITY.

TXZ118-119-280200-
DALLAS/FORT WORTH METROPLEX

CITY           SKY/WX    TMP DP  RH WIND       PRES   REMARKS
DFW AIRPORT    MOCLDY    37  29  72 N16       30.28R WCI  28
DALLAS LOVE    CLOUDY    38  31  76 N15G23    30.29R WCI  29
FTW MEACHAM    CLOUDY    37  28  70 NW14      30.30R WCI  28
DAL-EXECUTIVE  CLOUDY    39  30  70 N16       30.26R WCI  30
FTW-ALLIANCE   CLOUDY    36  28  73 N12       30.30R WCI  28
FTW-SPINKS     CLOUDY    37  30  75 NW18      30.30R WCI  27
ARLINGTON      CLOUDY    38  29  70 NW14      30.28R WCI  30
ADDISON        CLOUDY    37  30  75 NW14G23   30.29R WCI  29
MESQUITE         N/A     37  32  81 NW14      30.27R WCI  29
LANCASTER      CLOUDY    37  31  76 N16       30.28R WCI  28
$$

TXZ091>094-102>105-117-120-121-131>134-280200-
NORTH CENTRAL TEXAS

CITY           SKY/WX    TMP DP  RH WIND       PRES   REMARKS
SHRMAN/DENISON MOCLDY    35  32  88 NW10      30.30R WCI  27
GAINESVILLE    CLEAR     32  26  78 NW7       30.33R WCI  26
BOWIE          CLEAR     30  26  86 NW5       30.32R WCI  25
BRIDGEPORT     PTCLDY    34  28  76 NW8       30.34R WCI  27
DECATUR        MOCLDY    33  25  72 NW7       30.29R WCI  27
DENTON         CLOUDY    36  26  67 N15G21    30.31R WCI  27
MCKINNEY       CLOUDY    37  30  75 N14       30.29R WCI  28
GREENVILLE     CLOUDY    36  32  87 NW14G20   30.26R WCI  27
ROCKWALL       CLOUDY    37  32  83 N12G23    30.25R WCI  29
TERRELL        CLOUDY    40  33  76 NW15      30.26R WCI  32
WAXAHACHIE     CLOUDY    37  33  88 NW16      30.27R WCI  27
CLEBURNE       CLOUDY    36  32  87 N14       30.28S WCI  27
GRANBURY       CLOUDY    38  29  71 NW16      30.31R WCI  28
$$

TXZ083>090-098>101-113>116-127>130-139>142-154-155-280200-
WESTERN NORTH TEXAS

CITY           SKY/WX    TMP DP  RH WIND       PRES   REMARKS
WICHITA FALLS  CLEAR     32  25  75 NW6       30.31R WCI  26
WF-KICKAPOO    CLEAR     34  26  74 NW7       30.32S WCI  28
VERNON         MOCLDY    34  21  58 CALM      30.32R
ABILENE        PTCLDY    32  24  72 N5        30.30R WCI  27
ABILENE-DYESS  PTCLDY    31  26  79 NE6       30.29R WCI  26
BRECKENRIDGE   CLEAR     34  27  75 N3        30.31S
GRAHAM         CLEAR     32  28  85 NW5       30.31R WCI  27
MINERAL WELLS  PTCLDY    34  24  67 NW12      30.30R WCI  25
STEPHENVILLE   CLOUDY    35  27  74 N15       30.30R WCI  25
COMANCHE       CLOUDY    35  30  83 N14G21    30.29S WCI  25
BROWNWOOD      CLOUDY    36  27  69 N10G18    30.31R WCI  28
COLEMAN        CLOUDY    35  29  80 N10       30.30R WCI  27
BRADY          CLOUDY    37  30  75 N13       30.26R WCI  29
$$

TXZ143>147-156>162-174-175-280200-
CENTRAL TEXAS

CITY           SKY/WX    TMP DP  RH WIND       PRES   REMARKS
WACO           CLOUDY    39  32  76 N15G25    30.26R WCI  31
WACO-TSTC      CLOUDY    39  34  81 N14G23    30.26R WCI  31
WACO-MCGREGOR  CLOUDY    39  28  65 N16G22    30.27R WCI  30
HILLSBORO      CLOUDY    38  32  79 NW16G22   30.27R WCI  29
CORSICANA      CLOUDY    41  34  76 N20       30.25R WCI  32
MEXIA          CLOUDY    40  35  83 N17       30.21S WCI  31
HEARNE         CLOUDY    43  37  79 NW17      30.24R WCI  35
CAMERON        CLOUDY    43  36  78 N16G23    30.24R WCI  35
TEMPLE         CLOUDY    39  28  65 N17G23    30.23R WCI  30
KILLEEN        CLOUDY    38  33  82 N17       30.24R WCI  29
KILLEEN-SKYLRK CLOUDY    39  28  65 NW16G22   30.22R WCI  30
FORT HOOD      CLOUDY    39  33  79 NW16      30.24R WCI  30
GATESVILLE     CLOUDY    37  32  81 N13G18    30.29R WCI  29
HAMILTON       CLOUDY    37  31  79 N16       30.27R WCI  28
LAMPASAS       CLOUDY    38  33  81 N8        30.24R WCI  32
$$

TXZ095>097-106>112-122>126-135>138-148>153-164>167-280200-
EAST TEXAS

CITY           SKY/WX    TMP DP  RH WIND       PRES   REMARKS
PARIS          CLOUDY    36  32  87 N16G22    30.23S WCI  26
SULPHUR SPRNGS CLOUDY    38  37  93 N17       30.26R WCI  29
MOUNT PLEASANT CLOUDY    40  39  97 NW12      30.23R WCI  33
GILMER         DRIZZLE   40  38  94 NW9G16    30.19S WCI  34
MINEOLA        CLOUDY    39  37  93 NW10      30.25R WCI  32
TYLER          CLOUDY    41  38  89 NW14      30.20R WCI  33
LONGVIEW       CLOUDY    43  40  89 NW14      30.17R WCI  36
MARSHALL       CLOUDY    48  46  92 N13       30.18R
ATHENS         CLOUDY    37  36  93 N8G17     30.22R WCI  31
PALESTINE      CLOUDY    41  39  91 NW10G16   30.21R WCI  35
JACKSONVILLE   CLOUDY    42  41  95 N7        30.19R WCI  38
HENDERSON      CLOUDY    42  41  97 N6        30.19R WCI  39
NACOGDOCHES      N/A    N/A N/A N/A MISG        N/A
LUFKIN         CLOUDY    49  43  80 N7        30.15R
$$

SUPPLEMENTAL OBSERVATIONS (CENTRAL)

CITY           SKY/WX    TMP DP  RH WIND       PRES   REMARKS
LAKE TEXOMA      N/A     36  28  75 NW15        N/A  WCI  26
PAT MAYSE LAKE   N/A     34  32  93 NW15        N/A  WCI  24
GREENVILLE       N/A     36  32  87 N15G24      N/A  WCI  26
CEDAR HILL       N/A     37  32  81 N10         N/A  WCI  30
ATHENS           N/A     39  36  87 N8          N/A  WCI  34
PALESTINE        N/A     43  37  81 N9G17       N/A  WCI  37
LAKE LIMESTONE   N/A     43  36  75 NW12G20     N/A  WCI  37
MCGREGOR         N/A     39  32  75 N12         N/A  WCI  32
TEMPLE           N/A     39  32  75 NW2G12      N/A
$$

SUPPLEMENTAL OBSERVATIONS (WEST)

CITY           SKY/WX    TMP DP  RH WIND       PRES   REMARKS
MILLERS CREEK    N/A     32  25  74 E2          N/A
POSSUM KINGDOM   N/A     32  27  80 NW5         N/A  WCI  27
GRANBURY         N/A     36  27  69 NW15        N/A  WCI  26
COMANCHE         N/A     34  30  86 N16G22      N/A  WCI  23
HAMBY            N/A     32  27  80 N2          N/A
IVIE RESERVOIR   N/A     37  30  75 N10         N/A  WCI  30
COLORADO BEND    N/A     37  32  81 N7G15       N/A  WCI  32
$$

SUPPLEMENTAL OBSERVATIONS (EAST)

CITY           SKY/WX    TMP DP  RH WIND       PRES   REMARKS
CADDO LAKE       N/A     45  43  93 N5          N/A
HENDERSON        N/A     43  37  81 N15         N/A  WCI  35
N SABINE NF      N/A     48  45  87 MISG        N/A
$$

SUPPLEMENTAL OBSERVATIONS ARE A COLLECTION OF AUTOMATED INSTRUMENTS
THAT ARE MAINTAINED BY A VARIETY OF FEDERAL AND STATE AGENCIES.
CERTAIN ELEMENTS...SUCH AS HUMIDITY VALUES AND SUSTAINED WIND
SPEEDS...MAY BE APPROXIMATED.



USA.gov is the U.S. government's official web portal to all federal, state and local government web resources and services.